Tracking 35331 objects as of 14-Sep-2026
HD Live streaming from Space Station
objects crossing your sky now

COSMOS 1646 DEB


COSMOS 1646 DEB is no longer on orbit


NORAD ID: 18656
Int'l Code: 1985-030R
Launch date: April 18, 1985
Source: Commonwealth of Independent States (former USSR) (CIS)
Launch site: TYURATAM MISSILE AND SPACE COMPLEX (TTMTR)
Decay date: 1987-12-31

Note: This is SATELLITE DEBRIS
Your satellite tracking list
Your tracking list is empty




NASA's NSSDC Master Catalog

Two Line Element Set (TLE):
1 18656U 85030  R 87357.04576938  .01043060 +00000-0 +45201-2 0  9992
2 18656 065.0078 171.9270 0074094 011.7044 357.1610 15.80230968004977
Source of the keplerian elements: AFSPC